Weather History for Houston, TX

Change the Weather History Date:

Tuesday, March 6, 2012

  Actual Average Record
Temperature  
Mean Temperature 64 °F 60 °F  
Max Temperature 75 °F 71 °F 86 °F (1991)
Min Temperature 52 °F 51 °F 25 °F (1989)
Degree Days  
Heating Degree Days 1 6  
Month to date heating degree days 19 40  
Since 1 July heating degree days 944 1228  
Cooling Degree Days 0 2  
Month to date cooling degree days 21 10  
Year to date cooling degree days 107 48  
Growing Degree Days 15 (Base 50)    
Moisture  
Dew Point 55 °F    
Average Humidity 67    
Maximum Humidity 93    
Minimum Humidity 41    
Precipitation  
Precipitation 0.00 in 0.12 in 1.44 in (1896)
Month to date precipitation T 0.70  
Year to date precipitation 11.05 7.28  
Sea Level Pressure  
Sea Level Pressure 30.22 in    
Wind  
Wind Speed 8 mph (SE)    
Max Wind Speed 29 mph    
Max Gust Speed 36 mph    
Visibility 10 miles    
Events      
T = Trace of Precipitation, MM = Missing Value Source: NWS Daily Summary

Daily Weather History Graph

Daily Weather History Graph

Search for Another Location

Airport:

Trip Planner

Search our weather history database for the weather conditions in past years. The results will help you decide how hot, cold, wet, or windy it might be!

Date:

Astronomy

Mar. 06, 2012 Rise Set
Actual Time 6:40 AM CST 6:24 PM CST
Civil Twilight 6:16 AM CST 6:48 PM CST
Nautical Twilight 5:49 AM CST 7:15 PM CST
Astronomical Twilight 5:21 AM CST 7:43 PM CST
Moon 4:55 PM CST (3/6) 5:10 AM CST (3/6)
Length of Visible Light 12h 31m
Length of Day
11h 43m
Waxing Gibbous, 96% of the Moon is Illuminated
Mar 6
Waxing Gibbous
Mar 8
Full
Mar 14
Last Quarter
Mar 22
New
Mar 30
First Quarter

Hourly Weather History & Observations

Time (CST) Temp. Dew Point Humidity Pressure Visibility Wind Dir Wind Speed Gust Speed Precip Events Conditions
12:53 AM 57.0 °F 52.0 °F 83% 30.31 in 10.0 mi SE 3.5 mph - N/A   Clear
1:53 AM 55.9 °F 52.0 °F 87% 30.29 in 10.0 mi SSE 4.6 mph - N/A   Clear
2:53 AM 55.9 °F 52.0 °F 87% 30.27 in 10.0 mi SSE 4.6 mph - N/A   Scattered Clouds
3:53 AM 57.0 °F 53.1 °F 87% 30.25 in 10.0 mi SE 3.5 mph - N/A   Mostly Cloudy
4:53 AM 57.0 °F 53.1 °F 87% 30.25 in 10.0 mi Calm Calm - N/A   Scattered Clouds
5:53 AM 57.2 °F 53.6 °F 88% 30.23 in 10.0 mi SE 4.6 mph - N/A   Mostly Cloudy
6:53 AM 57.9 °F 54.0 °F 87% 30.26 in 10.0 mi Calm Calm - N/A   Scattered Clouds
7:53 AM 61.0 °F 55.9 °F 83% 30.27 in 10.0 mi Calm Calm - N/A   Scattered Clouds
8:53 AM 66.0 °F 57.0 °F 73% 30.28 in 10.0 mi SE 4.6 mph - N/A   Scattered Clouds
9:53 AM 70.0 °F 55.9 °F 61% 30.29 in 10.0 mi SE 12.7 mph 23.0 mph N/A   Mostly Cloudy
10:53 AM 71.1 °F 51.1 °F 49% 30.29 in 10.0 mi South 18.4 mph 26.5 mph N/A   Mostly Cloudy
11:53 AM 71.1 °F 51.1 °F 49% 30.28 in 10.0 mi SSE 19.6 mph 26.5 mph N/A   Mostly Cloudy
12:53 PM 72.0 °F 51.1 °F 48% 30.25 in 10.0 mi South 20.7 mph 29.9 mph N/A   Mostly Cloudy
1:53 PM 73.9 °F 51.1 °F 45% 30.21 in 10.0 mi South 18.4 mph 27.6 mph N/A   Mostly Cloudy
2:53 PM 75.0 °F 54.0 °F 48% 30.18 in 10.0 mi SE 16.1 mph 26.5 mph N/A   Overcast
3:53 PM 71.1 °F 55.9 °F 59% 30.18 in 10.0 mi SSE 16.1 mph 23.0 mph N/A   Mostly Cloudy
4:53 PM 69.8 °F 55.4 °F 60% 30.15 in 10.0 mi SSE 15.0 mph 24.2 mph N/A   Mostly Cloudy
5:53 PM 69.1 °F 57.0 °F 65% 30.15 in 10.0 mi SE 12.7 mph 26.5 mph N/A   Mostly Cloudy
6:53 PM 66.9 °F 57.9 °F 73% 30.14 in 10.0 mi ESE 8.1 mph - N/A   Mostly Cloudy
7:53 PM 66.2 °F 59.0 °F 78% 30.14 in 10.0 mi ESE 11.5 mph - N/A   Mostly Cloudy
8:53 PM 66.0 °F 60.1 °F 81% 30.16 in 10.0 mi ESE 10.4 mph - N/A   Mostly Cloudy
9:53 PM 66.9 °F 60.1 °F 79% 30.16 in 10.0 mi SE 13.8 mph 23.0 mph N/A   Mostly Cloudy
10:53 PM 66.9 °F 60.1 °F 79% 30.16 in 10.0 mi SE 10.4 mph 19.6 mph N/A   Mostly Cloudy
11:53 PM 66.9 °F 60.1 °F 79% 30.14 in 10.0 mi SE 11.5 mph - N/A   Overcast